STARLINK-32302, 61621

Orbit data source: Space-Track

STARLINK-32302, 61621 is a payload satellite owned by SpaceX/Seattle (US) in LEO that was launched on Wed, 23 Oct 2024 UTC via an FALCON 9 launch vehicle from the Air Force Eastern Test Range (AFETR). Payload-class satellites include a variety of spacecraft equipped with specific instruments for various scientific and technological missions. These include communications satellites like Starlink; space stations such as the ISS; scientific satellites like the Hubble; Earth observation satellites from companies like Planet Labs, Umbra, and HawkEye 360; GPS; miniature CubeSats for education and research; and military/defense satellites.

Loading next visibility...
Identifier
61621, 2024-191A
Orbit
LEO
Last TLE update
1 day ago
Origin
Manufacturer
SpaceX/Seattle
Mission
Operational Commercial Communications
Bus & Motor
STARLINK V2M, Unknown motor
Mass
730 kg wet, ~700 kg dry
Launch date (UTC)
2024-10-23 (8 months ago)
Launch vehicle
FALCON 9
Launch site
Air Force Eastern Test Range (AFETR)
Object type
Payload
Rocket body
Debris
Shape & HBR
Box + 2 Pan, 29 m
Radar Cross Section
36.964 m², Large (>1 m²)

Expand to show TLE details & history

TLE from 1 day ago
0 STARLINK-32302
1 61621U 24191A   25172.10610995 -.00000810  00000-0 -19903-4 0  9998
2 61621  43.0020 191.5242 0001519 283.7696  76.2986 15.27572932 38280
Epoch: 2025-06-21T02:32Z
TLE epoch observation values (Epoch: 2025-06-21T02:32:47.899Z)
Latitude
-0.00007°
Longitude
-116.2253°
Altitude
482.599 km
Speed
7.626 km/s
True Right ascension
12h 46m 05s
True Declination
0° 00' 00"
Sunlit
Object was in daylight at epoch
Visualization orbit readout
Latitude
-39.53039°
Longitude
173.70547°
Altitude
493.886 km
Speed
7.619 km/s
Apparent Right ascension
10h 37m 19s
Apparent Declination
-47° 01' 41"
Sunlit
Object is in daylight
Visualization observer readout
Local Sidereal Time
01:24:05
Azimuth
117.358° SE
Elevation
-59.304°
Doppler factor
1
Orbital elements
Apogee altitude
486.058 km
Perigee altitude
483.973 km
Semi-major axis
6,863.152 km
Eccentricity
0.00015
Inclination
43.002°
RAAN
191.5242°
Arg. of periapsis
283.7696°
True anomaly
Unknown
Mean anomaly
76.2986°
Eccentric anomaly
Unknown
Mean motion
3.81731 °/min
Orbital period
94.31 mins
BSTAR
-0.000019903
Loading maneuver chart data...
Loading SW <> Apogee altitude chart data...
Loading historical data...
Loading historical data...
Loading historical data...
Loading historical data...
Loading historical data...
Loading historical data...
Loading historical data...

STARLINK-32302 Visibility forecast

Observer location: undefined°, undefined°

Span
Click to sort rows by Start time (UTC) header in descending order
Start Az.
Max El. time (UTC)
Max El. Az.
Max El.
End time (UTC)
End Az.
5 mins2025-06-23 03:22:29.281Z196.18° SSW2025-06-23 03:25:29.281Z141.737° SSE20.331°2025-06-23 03:27:29.281Z102.604° ESE
6 mins2025-06-23 05:01:29.281Z249.598° W2025-06-23 05:03:29.281Z246.06° WSW42.416°2025-06-23 05:07:29.281Z72.178° E
6 mins2025-06-23 06:40:29.281Z286.278° WNW2025-06-23 06:43:29.281Z22.585° NE36.991°2025-06-23 06:46:29.281Z75.123° E
5 mins2025-06-23 08:20:29.281Z292.266° WNW2025-06-23 08:22:29.281Z64.314° ENE44.086°2025-06-23 08:25:29.281Z103.688° ESE
4 mins2025-06-23 09:59:29.281Z250.895° W2025-06-23 10:01:29.281Z198.288° SSW24.002°2025-06-23 10:03:29.281Z160.11° S
|